When you browse on this site, cookies collect data to enhance your experience and personalize the content and advertising you see.
Visit our Privacy Policy to learn more. By continuing to use the site, you agree to this use of cookies and data.

Stündliche Wetter Huejutla de Reyes

Heute, 14 Juli, Dienstag

Zeit Temperatur Niederschläge Wind Luftdruck Luftfeuchtigkeit
00:00 +26°C° 0 mm 1 m/S 746 mmHg 92%
01:00 +25°C° 0 mm 1 m/S 746 mmHg 91%
02:00 +25°C° 0 mm 1 m/S 746 mmHg 90%
03:00 +25°C° 0 mm 1 m/S 746 mmHg 90%
04:00 +25°C° 0 mm 1 m/S 746 mmHg 91%
05:00 +24°C° 0 mm 1 m/S 746 mmHg 92%
06:00 +26°C° 0 mm 1 m/S 746 mmHg 85%
07:00 +28°C° 0 mm 1 m/S 746 mmHg 79%
08:00 +30°C° 0 mm 1 m/S 746 mmHg 72%
09:00 +32°C° 0 mm 2 m/S 746 mmHg 66%
10:00 +34°C° 0 mm 2 m/S 746 mmHg 60%
11:00 +36°C° 0 mm 2 m/S 746 mmHg 54%
12:00 +37°C° 0.1 mm 2 m/S 745 mmHg 52%
13:00 +37°C° 0.1 mm 2 m/S 745 mmHg 50%
14:00 +38°C° 0.1 mm 3 m/S 745 mmHg 49%
15:00 +36°C° 0.2 mm 3 m/S 745 mmHg 55%
16:00 +35°C° 0.2 mm 3 m/S 745 mmHg 62%
17:00 +34°C° 0.2 mm 4 m/S 745 mmHg 69%
18:00 +31°C° 0.3 mm 3 m/S 745 mmHg 76%
19:00 +29°C° 0.3 mm 3 m/S 746 mmHg 83%
20:00 +27°C° 0.3 mm 2 m/S 746 mmHg 90%
21:00 +27°C° 0.1 mm 2 m/S 747 mmHg 91%
22:00 +26°C° 0.1 mm 2 m/S 747 mmHg 92%
23:00 +26°C° 0.1 mm 1 m/S 747 mmHg 93%

Morgen, 15 Juli, Mittwoch

Zeit Temperatur Niederschläge Wind Luftdruck Luftfeuchtigkeit
00:00 +26°C° 0 mm 1 m/S 746 mmHg 93%
01:00 +25°C° 0 mm 1 m/S 746 mmHg 93%
02:00 +25°C° 0 mm 1 m/S 746 mmHg 94%
03:00 +25°C° 0 mm 1 m/S 746 mmHg 94%
04:00 +23°C° 0 mm 0 m/S 746 mmHg 94%
05:00 +22°C° 0 mm 0 m/S 746 mmHg 95%
06:00 +24°C° 0.1 mm 0 m/S 746 mmHg 92%
07:00 +27°C° 0.1 mm 1 m/S 746 mmHg 89%
08:00 +28°C° 0.1 mm 1 m/S 746 mmHg 87%
09:00 +30°C° 0.1 mm 1 m/S 746 mmHg 79%
10:00 +31°C° 0.1 mm 1 m/S 746 mmHg 72%
11:00 +32°C° 0.1 mm 1 m/S 746 mmHg 65%
12:00 +33°C° 0.1 mm 1 m/S 746 mmHg 62%
13:00 +34°C° 0.1 mm 2 m/S 745 mmHg 60%
14:00 +35°C° 0.1 mm 2 m/S 745 mmHg 57%
15:00 +34°C° 0.3 mm 2 m/S 745 mmHg 61%
16:00 +34°C° 0.3 mm 2 m/S 744 mmHg 65%
17:00 +33°C° 0.3 mm 3 m/S 744 mmHg 70%
18:00 +30°C° 0.2 mm 2 m/S 745 mmHg 76%
19:00 +29°C° 0.2 mm 2 m/S 746 mmHg 83%
20:00 +27°C° 0.2 mm 2 m/S 747 mmHg 90%
21:00 +27°C° 0 mm 1 m/S 747 mmHg 91%
22:00 +26°C° 0 mm 1 m/S 747 mmHg 92%
23:00 +26°C° 0 mm 1 m/S 747 mmHg 93%

übermorgen, 16 Juli, Donnerstag

Zeit Temperatur Niederschläge Wind Luftdruck Luftfeuchtigkeit
00:00 +26°C° 0 mm 1 m/S 747 mmHg 93%
01:00 +25°C° 0 mm 1 m/S 746 mmHg 94%
02:00 +25°C° 0 mm 1 m/S 746 mmHg 94%
03:00 +23°C° 0 mm 0 m/S 746 mmHg 94%
04:00 +23°C° 0 mm 0 m/S 746 mmHg 95%
05:00 +22°C° 0 mm 0 m/S 746 mmHg 95%
06:00 +24°C° 0.1 mm 0 m/S 747 mmHg 89%
07:00 +28°C° 0.1 mm 1 m/S 747 mmHg 83%
08:00 +30°C° 0.1 mm 1 m/S 748 mmHg 78%
09:00 +31°C° 0.1 mm 1 m/S 748 mmHg 70%
10:00 +33°C° 0.1 mm 1 m/S 747 mmHg 63%
11:00 +35°C° 0.1 mm 2 m/S 747 mmHg 56%
12:00 +35°C° 0.1 mm 2 m/S 747 mmHg 55%
13:00 +35°C° 0.1 mm 2 m/S 746 mmHg 55%
14:00 +36°C° 0.1 mm 2 m/S 746 mmHg 54%
15:00 +35°C° 0.6 mm 2 m/S 746 mmHg 59%
16:00 +34°C° 0.6 mm 3 m/S 746 mmHg 64%
17:00 +33°C° 0.6 mm 3 m/S 745 mmHg 69%
18:00 +30°C° 1 mm 2 m/S 746 mmHg 76%
19:00 +28°C° 1 mm 2 m/S 747 mmHg 83%
20:00 +26°C° 1 mm 1 m/S 747 mmHg 90%
21:00 +26°C° 0 mm 1 m/S 748 mmHg 92%
22:00 +26°C° 0 mm 1 m/S 748 mmHg 93%
23:00 +25°C° 0 mm 1 m/S 748 mmHg 94%

17 Juli, Freitag

Zeit Temperatur Niederschläge Wind Luftdruck Luftfeuchtigkeit
00:00 +25°C° 0 mm 1 m/S 748 mmHg 94%
01:00 +25°C° 0 mm 1 m/S 747 mmHg 94%
02:00 +23°C° 0 mm 0 m/S 747 mmHg 95%
03:00 +24°C° 0 mm 1 m/S 747 mmHg 95%
04:00 +24°C° 0 mm 1 m/S 747 mmHg 95%
05:00 +24°C° 0 mm 1 m/S 747 mmHg 94%
06:00 +26°C° 0.1 mm 1 m/S 748 mmHg 89%
07:00 +28°C° 0.1 mm 1 m/S 748 mmHg 83%
08:00 +29°C° 0.1 mm 1 m/S 748 mmHg 78%
09:00 +31°C° 0.1 mm 1 m/S 748 mmHg 71%
10:00 +32°C° 0.1 mm 1 m/S 748 mmHg 64%
11:00 +35°C° 0.1 mm 2 m/S 747 mmHg 57%
12:00 +34°C° 1.3 mm 2 m/S 747 mmHg 60%
13:00 +34°C° 1.3 mm 2 m/S 746 mmHg 63%
14:00 +32°C° 1.3 mm 2 m/S 746 mmHg 67%
15:00 +31°C° 2.2 mm 2 m/S 746 mmHg 72%
16:00 +30°C° 2.2 mm 2 m/S 746 mmHg 78%
17:00 +29°C° 2.2 mm 2 m/S 745 mmHg 83%
18:00 +28°C° 0.9 mm 2 m/S 746 mmHg 86%
19:00 +27°C° 0.9 mm 1 m/S 746 mmHg 88%
20:00 +26°C° 0.9 mm 1 m/S 747 mmHg 91%
21:00 +26°C° 0.1 mm 1 m/S 747 mmHg 91%
22:00 +26°C° 0.1 mm 1 m/S 747 mmHg 91%
23:00 +26°C° 0.1 mm 1 m/S 747 mmHg 92%

18 Juli, Samstag

Zeit Temperatur Niederschläge Wind Luftdruck Luftfeuchtigkeit
00:00 +25°C° 0.1 mm 1 m/S 747 mmHg 92%
01:00 +25°C° 0.1 mm 1 m/S 747 mmHg 92%
02:00 +25°C° 0.1 mm 1 m/S 746 mmHg 92%
03:00 +25°C° 0 mm 1 m/S 746 mmHg 92%
04:00 +24°C° 0 mm 1 m/S 746 mmHg 92%
05:00 +24°C° 0 mm 1 m/S 746 mmHg 92%
06:00 +26°C° 0 mm 1 m/S 747 mmHg 88%
07:00 +27°C° 0 mm 1 m/S 747 mmHg 83%
08:00 +29°C° 0 mm 1 m/S 748 mmHg 78%
09:00 +30°C° 0.1 mm 1 m/S 747 mmHg 73%
10:00 +32°C° 0.1 mm 2 m/S 747 mmHg 67%
11:00 +34°C° 0.1 mm 2 m/S 747 mmHg 61%
12:00 +34°C° 0.3 mm 2 m/S 746 mmHg 59%
13:00 +34°C° 0.3 mm 3 m/S 746 mmHg 58%
14:00 +35°C° 0.3 mm 3 m/S 745 mmHg 57%
15:00 +34°C° 0.6 mm 3 m/S 745 mmHg 63%
16:00 +31°C° 0.6 mm 2 m/S 745 mmHg 70%
17:00 +30°C° 0.6 mm 2 m/S 745 mmHg 77%
18:00 +29°C° 0.3 mm 2 m/S 746 mmHg 81%
19:00 +27°C° 0.3 mm 2 m/S 746 mmHg 85%
20:00 +26°C° 0.3 mm 2 m/S 747 mmHg 89%
21:00 +25°C° 0 mm 1 m/S 747 mmHg 90%
22:00 +25°C° 0 mm 1 m/S 747 mmHg 90%
23:00 +25°C° 0 mm 1 m/S 747 mmHg 90%

19 Juli, Sonntag

Zeit Temperatur Niederschläge Wind Luftdruck Luftfeuchtigkeit
00:00 +24°C° 0 mm 1 m/S 747 mmHg 90%
01:00 +24°C° 0 mm 1 m/S 747 mmHg 90%
02:00 +24°C° 0 mm 1 m/S 746 mmHg 90%
03:00 +24°C° 0 mm 1 m/S 746 mmHg 90%
04:00 +23°C° 0 mm 1 m/S 746 mmHg 90%
05:00 +23°C° 0 mm 1 m/S 747 mmHg 91%
06:00 +25°C° 0 mm 1 m/S 747 mmHg 85%
07:00 +27°C° 0 mm 1 m/S 747 mmHg 79%
08:00 +29°C° 0 mm 1 m/S 747 mmHg 73%
09:00 +30°C° 0 mm 1 m/S 747 mmHg 67%
10:00 +32°C° 0 mm 1 m/S 747 mmHg 60%
11:00 +33°C° 0 mm 1 m/S 747 mmHg 54%
12:00 +35°C° 0 mm 2 m/S 746 mmHg 51%
13:00 +36°C° 0 mm 2 m/S 746 mmHg 48%
14:00 +36°C° 0 mm 2 m/S 745 mmHg 45%
15:00 +35°C° 0.1 mm 2 m/S 745 mmHg 51%
16:00 +34°C° 0.1 mm 2 m/S 745 mmHg 57%
17:00 +33°C° 0.1 mm 3 m/S 745 mmHg 63%
18:00 +30°C° 0.5 mm 2 m/S 745 mmHg 71%
19:00 +28°C° 0.5 mm 2 m/S 746 mmHg 79%
20:00 +26°C° 0.5 mm 1 m/S 747 mmHg 88%
21:00 +26°C° 0.1 mm 1 m/S 747 mmHg 88%
22:00 +25°C° 0.1 mm 1 m/S 747 mmHg 89%
23:00 +25°C° 0.1 mm 1 m/S 747 mmHg 89%
Mehr zeigen